Date String (YYYY-MM-DD hh:mm:ss) UTC,Instrument flags,absolute air pressure of the measurement (hPa),sample flow rate (lpm),inlet stack bypass flow (lpm),air temperature of the measurement (°C),ambient temperature measured by the external sensor (°C),aerosol sample conditioner tube jacket temperature (°C),OPC LED temperature (°C),internal box temperature (°C),relative humidity of the measurement (%),span deviation,mass concentration of particles derived from Lorenz-Mie calculation of OPC scattering (μg/m³),mass concentration of particles derived from Lorenz-Mie calculation of OPC scattering (μg/m³),mass concentration of particles derived from Lorenz-Mie calculation of OPC scattering (μg/m³)
DateTimeUTC,F1_M11,P_M11,Q1_M11,Q2_M11,T1_M11,T2_M11,T3_M11,T4_M11,T5_M11,U1_M11,ZSPAN_M11,X0_M11,X2_M11,X1_M11
2023-09-04 07:00:00,SystemResetWarning,0826.9,5.01,000.00,028.3,024.5,000.0,036.7,029.2,30.9,0000.0,0002.43,0001.92,0001.68
2023-09-04 07:01:00,SystemResetWarning,0826.9,5.00,000.00,028.2,024.7,000.0,036.7,029.2,30.8,0000.0,0002.49,0001.95,0001.66
2023-09-04 07:02:00,SystemResetWarning,0826.9,5.00,000.00,028.2,025.1,000.0,036.7,029.3,30.8,0000.0,0002.56,0001.98,0001.65
2023-09-04 07:03:00,SystemResetWarning,0826.9,5.00,000.00,028.2,025.5,000.0,036.7,029.4,30.8,0000.0,0002.72,0002.00,0001.63
2023-09-04 07:04:00,SystemResetWarning,0826.9,5.00,000.00,028.2,025.8,000.0,036.7,029.5,30.8,0000.0,0002.81,0002.01,0001.63
2023-09-04 07:05:00,SystemResetWarning,0826.8,5.00,000.00,028.2,026.1,000.0,036.7,029.6,30.8,0000.0,0002.84,0002.01,0001.62
2023-09-04 07:06:00,SystemResetWarning,0826.8,5.00,000.00,028.2,026.3,000.0,036.7,029.6,30.7,0000.0,0002.87,0002.00,0001.60
2023-09-04 07:07:00,SystemResetWarning,0826.8,5.00,000.00,028.2,026.5,000.0,036.7,029.7,30.8,0000.0,0002.84,0001.99,0001.58
2023-09-04 07:08:00,SystemResetWarning,0826.8,5.00,000.00,028.2,026.6,000.0,036.7,029.7,31.0,0000.0,0002.85,0001.98,0001.55
2023-09-04 07:09:00,SystemResetWarning,0826.8,5.00,000.00,028.2,026.8,000.0,036.7,029.8,30.9,0000.0,0002.82,0001.95,0001.53
2023-09-04 07:10:00,SystemResetWarning,0826.8,5.00,000.00,028.3,026.9,000.0,036.7,029.8,30.9,0000.0,0002.91,0001.96,0001.52
2023-09-04 07:11:00,SystemResetWarning,0826.8,4.99,000.00,028.3,027.0,000.0,036.7,029.8,31.6,0000.0,0003.06,0001.99,0001.52
2023-09-04 07:12:00,SystemResetWarning,0826.8,4.99,000.00,028.3,027.1,000.0,036.7,029.9,31.2,0000.0,0003.04,0001.96,0001.51
2023-09-04 07:13:00,SystemResetWarning,0826.8,5.00,000.00,028.4,027.1,000.0,036.7,029.9,31.4,0000.0,0003.06,0001.95,0001.50
2023-09-04 07:14:00,SystemResetWarning,0826.8,5.00,000.00,028.4,027.2,000.0,036.8,029.9,31.2,0000.0,0002.94,0001.94,0001.51
2023-09-04 07:15:00,SystemResetWarning,0826.8,5.01,000.00,028.4,027.2,000.0,036.8,030.0,30.8,0000.0,0002.81,0001.92,0001.50
2023-09-04 07:16:00,SystemResetWarning,0826.8,5.01,000.00,028.4,027.3,000.0,036.8,030.0,30.4,0000.0,0003.41,0001.93,0001.49
2023-09-04 07:17:00,SystemResetWarning,0826.8,5.01,000.00,028.5,027.3,000.0,036.8,030.1,30.7,0000.0,0003.61,0001.93,0001.48
2023-09-04 07:18:00,SystemResetWarning,0826.8,4.99,000.00,028.5,027.3,000.0,036.8,030.1,30.3,0000.0,0003.58,0001.91,0001.47
2023-09-04 07:19:00,SystemResetWarning,0826.8,4.98,000.00,028.5,026.5,000.0,036.8,029.8,30.4,0000.0,0003.61,0001.90,0001.48
2023-09-04 07:20:00,SystemResetWarning,0826.8,5.00,000.00,028.4,025.0,000.0,036.7,029.4,30.5,0000.0,0003.69,0001.91,0001.47
2023-09-04 07:21:00,SystemResetWarning,0826.9,5.02,000.00,028.2,024.5,000.0,036.6,029.2,31.7,0000.0,0003.70,0001.90,0001.46
2023-09-04 07:22:00,SystemResetWarning,0826.9,5.01,000.00,028.1,024.6,000.0,036.6,029.1,32.1,0000.0,0003.76,0001.93,0001.45
2023-09-04 07:23:00,SystemResetWarning,0826.9,4.99,000.00,028.1,025.0,000.0,036.6,029.2,31.6,0000.0,0003.90,0001.95,0001.45
2023-09-04 07:24:00,SystemResetWarning,0826.9,5.00,000.00,028.1,025.3,000.0,036.6,029.4,32.1,0000.0,0004.46,0001.99,0001.45
2023-09-04 07:25:00,SystemResetWarning,0826.9,5.00,000.00,028.1,025.7,000.0,036.6,029.5,31.8,0000.0,0004.46,0001.99,0001.44
2023-09-04 07:26:00,SystemResetWarning,0826.8,5.01,000.00,028.1,026.0,000.0,036.6,029.5,31.9,0000.0,0004.60,0002.04,0001.45
2023-09-04 07:27:00,SystemResetWarning,0826.8,4.99,000.00,028.1,026.2,000.0,036.6,029.6,31.7,0000.0,0004.05,0002.04,0001.45
2023-09-04 07:28:00,SystemResetWarning,0826.8,5.00,000.00,028.1,026.4,000.0,036.6,029.6,31.7,0000.0,0003.86,0002.04,0001.47
2023-09-04 07:29:00,SystemResetWarning,0826.8,5.00,000.00,028.1,026.6,000.0,036.6,029.7,31.7,0000.0,0003.85,0002.05,0001.46
2023-09-04 07:30:00,SystemResetWarning,0826.8,5.00,000.00,028.2,026.7,000.0,036.6,029.7,32.0,0000.0,0003.77,0002.05,0001.46
2023-09-04 07:31:00,SystemResetWarning,0826.8,5.00,000.00,028.2,026.8,000.0,036.6,029.8,32.2,0000.0,0003.70,0002.03,0001.46
2023-09-04 07:32:00,SystemResetWarning,0826.8,5.00,000.00,028.2,026.9,000.0,036.6,029.8,32.3,0000.0,0003.59,0002.00,0001.46
2023-09-04 07:33:00,SystemResetWarning,0826.8,5.00,000.00,028.2,027.0,000.0,036.6,029.8,32.2,0000.0,0003.43,0001.96,0001.45
2023-09-04 07:34:00,SystemResetWarning,0826.8,5.00,000.00,028.3,027.0,000.0,036.7,029.9,32.0,0000.0,0003.26,0001.94,0001.45
2023-09-04 07:35:00,SystemResetWarning,0826.8,5.00,000.00,028.3,027.1,000.0,036.7,029.9,32.3,0000.0,0002.64,0001.87,0001.45
2023-09-04 07:36:00,SystemResetWarning,0826.8,5.00,000.00,028.3,027.2,000.0,036.7,030.0,33.1,0000.0,0002.60,0001.84,0001.45
2023-09-04 07:37:00,SystemResetWarning,0826.9,5.00,000.00,028.4,027.2,000.0,036.7,030.0,34.3,0000.0,0002.67,0001.81,0001.44
2023-09-04 07:38:00,SystemResetWarning,0826.8,4.98,000.00,028.4,027.3,000.0,036.7,030.1,35.1,0000.0,0003.48,0001.79,0001.43
2023-09-04 07:39:00,SystemResetWarning,0826.8,5.04,000.00,028.6,027.4,000.0,036.7,030.2,35.0,0000.0,0003.45,0001.77,0001.41
2023-09-04 07:40:00,SystemResetWarning,0826.8,4.95,000.00,028.8,027.4,000.0,036.8,030.3,34.8,0000.0,0003.52,0001.78,0001.41
2023-09-04 07:41:00,SystemResetWarning,0826.8,5.03,000.00,028.9,027.4,000.0,036.8,030.3,34.1,0000.0,0003.59,0001.77,0001.41
2023-09-04 07:42:00,SystemResetWarning,0826.7,4.99,000.00,029.0,027.5,000.0,036.9,030.3,32.6,0000.0,0003.56,0001.77,0001.41
2023-09-04 07:43:00,SystemResetWarning,0826.8,4.99,000.00,029.1,026.6,000.0,036.9,030.1,32.4,0000.0,0003.58,0001.78,0001.41
2023-09-04 07:44:00,SystemResetWarning,0826.8,5.00,000.00,029.0,025.1,000.0,036.8,029.6,32.4,0000.0,0003.64,0001.79,0001.41
2023-09-04 07:45:00,SystemResetWarning,0826.7,5.00,000.00,028.9,024.6,000.0,036.8,029.5,32.5,0000.0,0004.11,0001.78,0001.41
2023-09-04 07:46:00,SystemResetWarning,0826.7,5.01,000.00,028.7,024.7,000.0,036.8,029.4,32.7,0000.0,0004.34,0001.78,0001.40
2023-09-04 07:47:00,SystemResetWarning,0826.6,5.01,000.00,028.7,025.0,000.0,036.9,029.4,32.6,0000.0,0004.37,0001.81,0001.41
2023-09-04 07:48:00,SystemResetWarning,0826.7,5.00,000.00,028.7,025.4,000.0,036.9,029.5,32.7,0000.0,0004.21,0001.80,0001.40
2023-09-04 07:49:00,SystemResetWarning,0826.7,5.00,000.00,028.7,025.7,000.0,036.9,029.6,32.6,0000.0,0003.27,0001.80,0001.40
2023-09-04 07:50:00,SystemResetWarning,0826.7,5.00,000.00,028.7,026.0,000.0,036.9,029.7,31.9,0000.0,0003.48,0001.84,0001.40
2023-09-04 07:51:00,SystemResetWarning,0826.6,5.00,000.00,028.7,026.3,000.0,036.9,029.8,31.3,0000.0,0003.43,0001.84,0001.41
2023-09-04 07:52:00,SystemResetWarning,0826.6,5.00,000.00,028.7,026.5,000.0,036.9,029.8,31.1,0000.0,0003.36,0001.85,0001.42
2023-09-04 07:53:00,SystemResetWarning,0826.6,5.00,000.00,028.7,026.6,000.0,037.0,029.8,30.9,0000.0,0003.43,0001.87,0001.42
2023-09-04 07:54:00,SystemResetWarning,0826.6,4.99,000.00,028.7,026.8,000.0,037.0,029.9,30.9,0000.0,0003.37,0001.85,0001.41
2023-09-04 07:55:00,SystemResetWarning,0826.6,5.00,000.00,028.7,026.9,000.0,037.0,029.9,31.1,0000.0,0003.36,0001.82,0001.42
2023-09-04 07:56:00,SystemResetWarning,0826.6,4.99,000.00,028.8,027.0,000.0,037.0,030.0,31.2,0000.0,0003.00,0001.85,0001.43
2023-09-04 07:57:00,SystemResetWarning,0826.6,5.00,000.00,028.8,027.1,000.0,037.0,030.0,31.1,0000.0,0002.91,0001.86,0001.43
2023-09-04 07:58:00,SystemResetWarning,0826.6,5.01,000.00,028.8,027.2,000.0,037.0,030.1,30.9,0000.0,0002.93,0001.86,0001.43
2023-09-04 07:59:00,SystemResetWarning,0826.6,5.01,000.00,028.8,027.2,000.0,037.0,030.1,30.8,0000.0,0003.49,0001.85,0001.43
